[[{"header":{"parameterUnit":"m.s-1","parameterCategory":1,"la1":30.2991,"la2":30.254,"lo1":-89.0895,"lo2":-89.0444,"dy":0.0017,"dx":0.0017,"nx":28,"ny":28,"refTime":"2023-10-14T09:00:00:Z","depth":0,"parameterNumber":2,"parameterNumberName":"U-component_of_WINDS"},"data":[0,0,0,0,0,0,0,0,0,0,0,0,0,0,0,0,0,0,0,0,0,0,0,0,0,0,0,0,0,0,0,0,0,0,0,0,0,0,0,0,0,0,0,0,0,0,0,0,0,0,0,0,0,0,0,0,0,0,-0.636,-0.6361,0,-0.6391,-0.6392,-0.6392,-0.6375,-0.6374,-0.6373,-0.6373,-0.6403,-0.6405,-0.6406,0,0,0,0,0,0,0,0,0,0,0,0,0,-0.6285,-0.6287,-0.636,-0.6361,-0.6361,-0.6391,-0.6392,-0.6392,-0.6375,-0.6374,-0.6373,-0.6372,-0.6403,-0.6404,-0.6406,0,0,0,0,0,0,0,0,0,0,0,0,0,-0.6317,-0.6287,-0.636,-0.6356,-0.6356,-0.6391,-0.6392,-0.6392,-0.6375,-0.6374,-0.6373,-0.6372,-0.6402,-0.6404,-0.6407,-0.6447,0,0,-0.6414,-0.6415,0,0,0,0,0,0,0,0,-0.6315,-0.632,-0.6356,-0.6357,-0.6357,-0.6378,-0.6376,-0.6411,-0.6376,-0.6368,-0.6373,-0.6371,-0.6396,-0.6399,-0.6407,-0.6448,-0.645,-0.6414,-0.6416,-0.6417,-0.6417,0,0,0,0,0,0,0,-0.6313,-0.6319,-0.6373,-0.6357,-0.6357,-0.6353,-0.6356,-0.6383,-0.6389,-0.6369,-0.6368,-0.6371,-0.6395,-0.6405,-0.6408,-0.645,-0.6414,-0.6416,-0.6418,-0.6419,-0.6526,-0.6527,0,0,0,0,0,0,-0.6311,-0.6317,-0.6372,-0.6373,-0.6333,-0.6355,-0.6359,-0.6372,-0.6388,-0.6389,-0.6373,-0.6371,-0.6401,-0.6405,-0.6409,-0.6457,-0.6417,-0.6419,-0.642,-0.6524,-0.6526,-0.6527,0,0,0,0,0,0,-0.631,-0.6317,-0.637,-0.6345,-0.6351,-0.6358,-0.6373,-0.6374,-0.6383,-0.6391,-0.6392,-0.6381,-0.64,-0.6405,-0.6438,-0.6457,-0.642,-0.6422,-0.6523,-0.6525,-0.6527,-0.6553,0,0,0,0,0,0,-0.6308,-0.6316,-0.6332,-0.6345,-0.6353,-0.6399,-0.6375,-0.6375,-0.6387,-0.6385,-0.6399,-0.6401,-0.64,-0.6434,-0.644,-0.646,-0.6424,-0.6521,-0.6524,-0.6526,-0.655,-0.6555,-0.656,0,0,0,0,0,-0.6305,-0.6337,-0.6332,-0.6339,-0.6372,-0.64,-0.6404,-0.6403,-0.6389,-0.6405,-0.641,-0.64,-0.6455,-0.6437,-0.6444,-0.6465,-0.652,-0.6523,-0.6526,-0.6548,-0.6554,-0.656,0,0,0,0,0,0,-0.6325,-0.6339,-0.6334,-0.6371,-0.6385,-0.6397,-0.6417,-0.641,-0.6427,-0.6425,-0.6422,-0.6426,-0.6459,-0.6465,-0.6446,-0.6505,-0.6485,-0.6489,-0.6499,-0.6506,-0.651,-0.6508,-0.6426,0,0,0,0,0,-0.6334,-0.6356,-0.6367,-0.6399,-0.6406,-0.641,-0.6422,-0.642,-0.6434,-0.6439,-0.6447,-0.646,-0.648,-0.6493,-0.6512,-0.6551,-0.6554,-0.6569,-0.6574,-0.6578,-0.6582,-0.6603,-0.6609,-0.6538,-0.6538,-0.6538,0,0,-0.6352,-0.6363,-0.6376,-0.6403,-0.6413,-0.6435,-0.6415,-0.6439,-0.6456,-0.6443,-0.6474,-0.648,-0.6495,-0.653,-0.6546,-0.6537,-0.6602,-0.6582,-0.6585,-0.6587,-0.6607,-0.6613,-0.6619,-0.654,-0.654,-0.6539,0,0,-0.6397,-0.6407,-0.6435,-0.6446,-0.6462,-0.6464,-0.6471,-0.6485,-0.6489,-0.652,-0.6511,-0.653,-0.6565,-0.6575,-0.6585,-0.6635,-0.6626,-0.6641,-0.6667,-0.6687,-0.6693,-0.6698,-0.6715,-0.6721,-0.6645,-0.6645,-0.6645,0,-0.6417,-0.6451,-0.645,-0.6475,-0.6487,-0.6477,-0.6505,-0.6516,-0.6537,-0.6545,-0.6534,-0.6577,-0.6586,-0.6624,-0.6637,-0.6645,-0.6653,-0.6639,-0.6692,-0.6697,-0.6702,-0.6718,-0.6724,-0.6647,-0.6646,-0.6646,-0.6646,0,-0.6475,-0.6499,-0.6519,-0.654,-0.6555,-0.6581,-0.6584,-0.6598,-0.6596,-0.6599,-0.6631,-0.6642,-0.6663,-0.6672,-0.6669,-0.671,-0.6703,-0.6692,-0.6672,-0.671,-0.6725,-0.6732,-0.6649,-0.6648,-0.6648,-0.6648,0,0,-0.6532,-0.6553,-0.6561,-0.657,-0.6587,-0.6605,-0.6631,-0.6652,-0.6664,-0.6679,-0.6701,-0.6731,-0.6721,-0.6732,-0.6731,-0.6749,-0.6787,-0.6735,-0.6736,-0.6744,-0.6832,-0.6839,-0.6847,-0.6782,-0.6783,-0.6784,-0.683,0,-0.6578,-0.6623,-0.6624,-0.6666,-0.6687,-0.6678,-0.6701,-0.6714,-0.6718,-0.6737,-0.6742,-0.6763,-0.6749,-0.6755,-0.6773,-0.6778,-0.6804,-0.6775,-0.6801,-0.6802,-0.6797,-0.6855,-0.6863,-0.6906,-0.6836,-0.6837,-0.6838,0,-0.6636,-0.6654,-0.6698,-0.6712,-0.6721,-0.6742,-0.6761,-0.6779,-0.6793,-0.6795,-0.6808,-0.6804,-0.683,-0.681,-0.6846,-0.6826,-0.6837,-0.6841,-0.6843,-0.6845,-0.6822,-0.6857,-0.692,-0.6926,-0.6847,-0.6847,-0.6846,0,-0.6673,-0.6707,-0.6738,-0.6747,-0.6764,-0.6779,-0.6787,-0.68,-0.6812,-0.6829,-0.6837,-0.6857,-0.6867,-0.6883,-0.6884,-0.6869,-0.692,-0.69,-0.6922,-0.6922,-0.6932,-0.6931,-0.6996,-0.694,-0.694,-0.694,-0.694,0,-0.6723,-0.675,-0.6755,-0.6774,-0.6804,-0.6804,-0.6834,-0.6841,-0.6853,-0.6873,-0.6867,-0.6885,-0.6886,-0.6905,-0.6906,-0.6936,-0.694,-0.6943,-0.6942,-0.6943,-0.6942,-0.6949,-0.6946,-0.6942,-0.6941,-0.6941,-0.6941,0,-0.6768,-0.6773,-0.6806,-0.682,-0.6824,-0.6846,-0.6858,-0.6876,-0.688,-0.6905,-0.6911,-0.6918,-0.694,-0.6943,-0.6969,-0.6969,-0.7004,-0.7001,-0.7,-0.6999,-0.7021,-0.7018,-0.7092,-0.7101,-0.704,-0.704,-0.7041,0,-0.6799,-0.682,-0.6837,-0.685,-0.6859,-0.688,-0.6893,-0.6894,-0.6908,-0.6926,-0.6942,-0.6963,-0.6981,-0.7017,-0.7023,-0.7043,-0.704,-0.7065,-0.7043,-0.7043,-0.704,-0.7038,-0.704,-0.7068,-0.7069,-0.707,-0.707,0,-0.6854,-0.6856,-0.6875,-0.6895,-0.6911,-0.6927,-0.6942,-0.6953,-0.6956,-0.6971,-0.6994,-0.7008,-0.7034,-0.7056,-0.7076,-0.7083,-0.7077,-0.7077,-0.7083,-0.7083,-0.7081,-0.7082,-0.701,-0.7075,-0.7075,-0.7074,-0.7074,-0.7074,-0.6893,-0.6911,-0.6926,-0.6947,-0.6959,-0.6973,-0.6991,-0.6998,-0.7017,-0.7039,-0.7038,-0.7063,-0.7077,-0.7103,-0.7112,-0.7132,-0.7124,-0.7133,-0.7135,-0.7137,-0.7139,-0.7079,-0.7135,-0.7135,-0.7135,-0.7135,-0.7135,0,-0.6947,-0.6956,-0.6976,-0.6998,-0.7015,-0.7008,-0.7024,-0.7039,-0.7061,-0.7075,-0.7092,-0.7119,-0.714,-0.7148,-0.7169,-0.7183,-0.718,-0.7188,-0.7187,-0.7188,-0.7145,-0.7137,-0.719,-0.719,-0.719,-0.719,-0.719,-0.719,-0.6977,-0.7008,-0.7011,-0.7047,-0.7055,-0.708,-0.709,-0.7103,-0.7114,-0.7144,-0.7161,-0.7167,-0.7179,-0.72,-0.7219,-0.7221,-0.7229,-0.7237,-0.7238,-0.7197,-0.7192,-0.7186,-0.7179,-0.7239,-0.7239,-0.728,-0.728,-0.7281]},{"header":{"parameterUnit":"m.s-1","parameterCategory":1,"la1":30.2991,"la2":30.254,"lo1":-89.0895,"lo2":-89.0444,"dy":0.0017,"dx":0.0017,"nx":28,"ny":28,"refTime":"2023-10-14T09:00:00:Z","depth":0,"parameterNumber":3,"parameterNumberName":"V-component_of_WINDS"},"data":[0,0,0,0,0,0,0,0,0,0,0,0,0,0,0,0,0,0,0,0,0,0,0,0,0,0,0,0,0,0,0,0,0,0,0,0,0,0,0,0,0,0,0,0,0,0,0,0,0,0,0,0,0,0,0,0,0,0,-0.3238,-0.3239,0,-0.3318,-0.3319,-0.332,-0.3333,-0.3332,-0.3331,-0.3331,-0.3415,-0.3417,-0.342,0,0,0,0,0,0,0,0,0,0,0,0,0,-0.31,-0.3103,-0.3238,-0.3239,-0.324,-0.3318,-0.3319,-0.332,-0.3333,-0.3332,-0.3331,-0.333,-0.3414,-0.3417,-0.342,0,0,0,0,0,0,0,0,0,0,0,0,0,-0.3168,-0.3103,-0.3238,-0.3256,-0.3258,-0.3317,-0.3319,-0.332,-0.3333,-0.3332,-0.3331,-0.333,-0.3412,-0.3417,-0.3421,-0.3468,0,0,-0.3434,-0.3436,0,0,0,0,0,0,0,0,-0.3164,-0.3173,-0.3252,-0.3255,-0.3258,-0.3314,-0.3301,-0.337,-0.3333,-0.3305,-0.3331,-0.3329,-0.3382,-0.3389,-0.3406,-0.3472,-0.3476,-0.3435,-0.3437,-0.3439,-0.344,0,0,0,0,0,0,0,-0.3159,-0.317,-0.327,-0.3254,-0.3257,-0.3261,-0.3269,-0.3314,-0.3348,-0.3307,-0.3308,-0.3317,-0.3383,-0.3402,-0.3408,-0.3477,-0.3434,-0.3438,-0.3441,-0.3443,-0.3586,-0.3588,0,0,0,0,0,0,-0.3151,-0.3166,-0.3267,-0.3272,-0.3207,-0.3264,-0.3274,-0.3297,-0.3348,-0.3355,-0.3318,-0.3318,-0.3395,-0.3403,-0.3411,-0.347,-0.3439,-0.3443,-0.3446,-0.3585,-0.3587,-0.3588,0,0,0,0,0,0,-0.3148,-0.316,-0.3264,-0.3219,-0.3233,-0.3268,-0.3294,-0.3299,-0.3318,-0.3356,-0.3363,-0.3331,-0.3395,-0.3405,-0.3454,-0.3474,-0.3445,-0.3449,-0.3584,-0.3586,-0.3587,-0.3589,0,0,0,0,0,0,-0.3144,-0.3159,-0.3177,-0.322,-0.3235,-0.3305,-0.3295,-0.3302,-0.3325,-0.3325,-0.337,-0.3376,-0.3395,-0.3447,-0.3458,-0.3479,-0.3452,-0.3582,-0.3585,-0.3587,-0.3587,-0.3591,-0.3593,0,0,0,0,0,-0.3139,-0.3175,-0.3178,-0.319,-0.3258,-0.3306,-0.3315,-0.3335,-0.3326,-0.3345,-0.337,-0.3375,-0.3469,-0.3452,-0.3465,-0.3487,-0.3581,-0.3584,-0.3587,-0.3586,-0.359,-0.3593,0,0,0,0,0,0,-0.3135,-0.3181,-0.3185,-0.3235,-0.3266,-0.3308,-0.3332,-0.3339,-0.3374,-0.3372,-0.3396,-0.3406,-0.3454,-0.3475,-0.3455,-0.3536,-0.3525,-0.353,-0.352,-0.3524,-0.3527,-0.3521,-0.3456,0,0,0,0,0,-0.3139,-0.3173,-0.3212,-0.3253,-0.3268,-0.3297,-0.3319,-0.3331,-0.3365,-0.3379,-0.3407,-0.3441,-0.3478,-0.3502,-0.3539,-0.359,-0.36,-0.3612,-0.3615,-0.3617,-0.3622,-0.3651,-0.3656,-0.3597,-0.3597,-0.3597,0,0,-0.315,-0.3179,-0.3199,-0.3253,-0.3278,-0.3314,-0.3309,-0.3347,-0.3374,-0.3385,-0.3433,-0.3454,-0.3493,-0.3544,-0.3567,-0.3563,-0.364,-0.362,-0.3622,-0.3626,-0.3654,-0.366,-0.3665,-0.3599,-0.3599,-0.3598,0,0,-0.3187,-0.3212,-0.3249,-0.3274,-0.3313,-0.3332,-0.3341,-0.3382,-0.3397,-0.3444,-0.3454,-0.3486,-0.355,-0.3577,-0.36,-0.3646,-0.3652,-0.3657,-0.3674,-0.3702,-0.3706,-0.3711,-0.3728,-0.3734,-0.3662,-0.3662,-0.3662,0,-0.3195,-0.3248,-0.3267,-0.3305,-0.3328,-0.3339,-0.3377,-0.3401,-0.345,-0.3466,-0.346,-0.354,-0.3567,-0.3624,-0.3635,-0.3653,-0.3664,-0.3653,-0.3704,-0.3708,-0.3713,-0.3729,-0.3736,-0.3662,-0.3662,-0.3662,-0.3662,0,-0.3257,-0.3293,-0.3318,-0.3364,-0.3391,-0.3428,-0.3453,-0.3478,-0.3487,-0.3507,-0.3556,-0.3588,-0.3632,-0.3646,-0.3656,-0.3704,-0.3701,-0.3699,-0.3689,-0.3718,-0.3734,-0.3741,-0.3663,-0.3662,-0.3662,-0.3662,0,0,-0.3294,-0.3349,-0.3358,-0.3379,-0.3422,-0.3452,-0.349,-0.3531,-0.3551,-0.3585,-0.3618,-0.3671,-0.3669,-0.3694,-0.3708,-0.3732,-0.3768,-0.3728,-0.3729,-0.3735,-0.3823,-0.3825,-0.3832,-0.3771,-0.3773,-0.3774,-0.382,0,-0.3337,-0.3404,-0.3422,-0.3479,-0.3514,-0.3524,-0.3557,-0.3588,-0.3607,-0.364,-0.3661,-0.3699,-0.3694,-0.3709,-0.3734,-0.3758,-0.3786,-0.3755,-0.3803,-0.3805,-0.3794,-0.384,-0.3842,-0.3884,-0.3826,-0.3828,-0.3828,0,-0.3396,-0.3429,-0.349,-0.3528,-0.3543,-0.3573,-0.3612,-0.3643,-0.3677,-0.369,-0.3717,-0.3728,-0.3769,-0.3755,-0.3812,-0.3791,-0.3811,-0.3826,-0.3828,-0.3834,-0.3819,-0.3848,-0.3898,-0.3905,-0.3838,-0.3838,-0.3837,0,-0.3418,-0.3478,-0.3522,-0.3539,-0.3585,-0.3606,-0.3626,-0.3659,-0.3683,-0.3717,-0.3733,-0.3772,-0.3794,-0.3824,-0.3845,-0.3833,-0.39,-0.3888,-0.3912,-0.3912,-0.3927,-0.3926,-0.3981,-0.3938,-0.3938,-0.3938,-0.3938,0,-0.3464,-0.3501,-0.3532,-0.3559,-0.3601,-0.3621,-0.3662,-0.3683,-0.3712,-0.3744,-0.3756,-0.3786,-0.3812,-0.3845,-0.3862,-0.3907,-0.3916,-0.3928,-0.3932,-0.3927,-0.3926,-0.3942,-0.394,-0.394,-0.3939,-0.3939,-0.3939,0,-0.3496,-0.3518,-0.3567,-0.3606,-0.3616,-0.3645,-0.3679,-0.3706,-0.3726,-0.3766,-0.3776,-0.3807,-0.3847,-0.3871,-0.3922,-0.3933,-0.3983,-0.3985,-0.3971,-0.3973,-0.3995,-0.3993,-0.4064,-0.4075,-0.4024,-0.4024,-0.4025,0,-0.3524,-0.3552,-0.3594,-0.3616,-0.3636,-0.3671,-0.3695,-0.3716,-0.374,-0.3782,-0.3804,-0.3844,-0.3878,-0.3941,-0.3969,-0.4007,-0.4012,-0.4034,-0.4018,-0.4012,-0.4013,-0.4011,-0.4015,-0.4037,-0.4037,-0.4038,-0.4038,0,-0.3572,-0.3582,-0.3615,-0.3653,-0.368,-0.3711,-0.3742,-0.3759,-0.3785,-0.3812,-0.3853,-0.3879,-0.393,-0.397,-0.4011,-0.4033,-0.404,-0.4043,-0.405,-0.4046,-0.4037,-0.4043,-0.3979,-0.4041,-0.4041,-0.4041,-0.404,-0.404,-0.3604,-0.363,-0.3663,-0.37,-0.3725,-0.3753,-0.378,-0.3802,-0.3836,-0.3879,-0.389,-0.3932,-0.3966,-0.4022,-0.4044,-0.4079,-0.4075,-0.4086,-0.4089,-0.4092,-0.4093,-0.403,-0.4086,-0.4086,-0.4086,-0.4086,-0.4086,0,-0.3653,-0.3675,-0.3708,-0.375,-0.378,-0.3782,-0.3816,-0.3841,-0.3878,-0.3909,-0.3941,-0.3988,-0.4027,-0.4057,-0.4097,-0.4118,-0.4123,-0.4128,-0.4127,-0.4132,-0.4093,-0.4083,-0.4124,-0.4124,-0.4124,-0.4124,-0.4124,-0.4124,-0.3682,-0.3726,-0.3739,-0.3796,-0.3818,-0.3859,-0.3878,-0.3904,-0.3929,-0.398,-0.4012,-0.4031,-0.4062,-0.4104,-0.414,-0.4148,-0.4162,-0.4167,-0.4176,-0.4139,-0.4135,-0.4131,-0.4122,-0.417,-0.417,-0.4212,-0.4213,-0.4213]}]]